Regional Weather Roundup
Issued by NWS

Home | Current Version | Previous Version | Text Only | Print | Product List | Glossary Off
Versions: 1 2 3 4 5 6 7 8 9 10 11 12 13 14 15 16 17 18 19 20 21 22 23 24 25 26 27 28 29 30 31 32 33 34 35 36 37 38 39 40 41 42 43 44 45 46 47 48 49 50

000
ASUS43 KLSX 250659
RWRMO

WEATHER SUMMARY FOR MISSOURI
NATIONAL WEATHER SERVICE SPRINGFIELD MO
100 AM CST THU DEC 25 2014

NOTE: "FAIR" INDICATES FEW OR NO CLOUDS BELOW 12,000 FEET WITH NO
       SIGNIFICANT WEATHER AND/OR OBSTRUCTIONS TO VISIBILITY.
       CURRENT SKY AND/OR WEATHER CONDITIONS ARE NOT AVAILABLE FOR
       CHILLICOTHE AND FARMINGTON.

MOZ001>031-035>038-043-044-053-054-250800-
...NORTHERN AND WESTERN MISSOURI...

CITY           SKY/WX    TMP DP  RH WIND       PRES   REMARKS
KANSAS CTY INT CLEAR     31  29  92 S13       29.79S WCI  21
KANSAS C DTWN  CLEAR     33  28  81 S9        29.82R WCI  25
LEE`S SUMMIT   CLEAR     31  27  85 S9        29.83R WCI  23
ST JOSEPH      CLEAR     30  27  88 S10       29.78F WCI  21
CHILLICOTHE      N/A     31  27  85 S6        29.83R WCI  25
KIRKSVILLE     CLOUDY    33  29  85 SW9       29.81S WCI  25

$$
MOZ066>068-077>081-088>096-101>105-250800-
...SOUTHWEST MISSOURI...

CITY           SKY/WX    TMP DP  RH WIND       PRES   REMARKS
SPRINGFIELD    CLEAR     31  27  85 S10       29.89S WCI  22
JOPLIN         CLEAR     32  29  88 S12       29.89F WCI  23

$$
MOZ032>034-039>042-045>050-055>058-069>072-250800-
...CENTRAL MISSOURI...

CITY           SKY/WX    TMP DP  RH WIND       PRES   REMARKS
COLUMBIA       MOCLDY    34  29  82 SW10      29.87R WCI  26
JEFFERSON CITY MOCLDY    36  29  75 SW10      29.89S WCI  28
ROLLA          CLOUDY    34  28  79 W13       29.86S WCI  25
SEDALIA        CLEAR     33  29  85 S10       29.86S WCI  25
WARRENSBURG    CLEAR     32  28  86 S9        29.85S WCI  24
OSAGE BEACH    CLEAR     32  27  80 S5        29.89R WCI  27

$$
MOZ051-052-059>065-250800-
...EAST CENTRAL MISSOURI...

CITY           SKY/WX    TMP DP  RH WIND       PRES   REMARKS
ST LOUIS INTL  CLOUDY    38  34  85 SW7       29.88R
SPIRIT OF STL  CLOUDY    38  32  79 W10       29.88R
ST CHARLES     CLOUDY    37  33  85 SW5       29.87S

$$
MOZ072>076-082>087-097>100-106>115-250800-
...SOUTH CENTRAL AND SOUTHEAST MISSOURI...

CITY           SKY/WX    TMP DP  RH WIND       PRES   REMARKS
CAPE GIRARDEAU CLOUDY    38  35  89 SW8       29.94R
FARMINGTON     CLOUDY    37  28  70 W6        29.91S
POPLAR BLUFF   CLOUDY    40  31  70 W7        29.95R
WEST PLAINS    MOCLDY    34  27  75 W7        29.93S WCI  28

$$



USA.gov is the U.S. government's official web portal to all federal, state and local government web resources and services.